Showing default

FLOCK 4Q 4, 58327

Orbit data source: Space-Track

FLOCK 4Q 4, 58327 is a payload satellite owned by Planet (US) in SSO that was launched on Sat, 11 Nov 2023 UTC via an FALCON 9 launch vehicle from the Air Force Western Test Range (AFWTR). Payload-class satellites include a variety of spacecraft equipped with specific instruments for various scientific and technological missions. These include communications satellites like Starlink; space stations such as the ISS; scientific satellites like the Hubble; Earth observation satellites from companies like Planet Labs, Umbra, and HawkEye 360; GPS; miniature CubeSats for education and research; and military/defense satellites.

Loading next visibility...
Identifier
58327, 2023-174BZ
Orbit
SSO
Country
Flag of USUS
Related business
Manufacturer
Planet
Mission
Operational Commercial Imaging
Bus & Motor
CUBESAT 3U, Unknown motor
Mass
5.7 kg wet, 5.7 kg dry
Launch date (UTC)
2023-11-11 (3 years ago)
Launch vehicle
FALCON 9
Launch site
Air Force Western Test Range (AFWTR)
Object type
Payload
Rocket body
Debris
Shape & HBR
Box + 2 Pan, 1.0 m
Radar Cross Section
0.072 m², Medium (>0.1 m² and < 1m²)

Expand to show TLE details & history
Last TLE update: 3 days ago

TLE from 3 days ago
0 FLOCK 4Q 4
1 58327U 23174BZ  26170.79568047  .00018353  00000-0  34416-3 0  9995
2 58327  97.3826 258.5643 0007089 147.8596 212.3088 15.48675875145964
Epoch: 2026-06-19T19:05Z
TLE epoch observation values (Epoch: 2026-06-19T19:05:46.792Z)
Latitude
-0.00004°
Longitude
64.09981°
Altitude
427.804 km
Speed
7.652 km/s
True Right ascension
17h 14m 15s
True Declination
0° 00' 00"
Sunlit
Object was in full shadow at epoch
Visualization orbit readout
Latitude
Unknown
Longitude
Unknown
Altitude
Unknown
Speed
Unknown
Apparent Right ascension
Unknown
Apparent Declination
Unknown
Sunlit
N/A
Visualization observer readout
Local Sidereal Time
21:40:29
Azimuth
Unknown
Elevation
Unknown
Doppler factor
Unknown
Orbital elements
Apogee altitude
422.343 km
Perigee altitude
412.708 km
Semi-major axis
6,795.662 km
Eccentricity
0.00071
Inclination
97.3826°
RAAN
258.5643°
Arg. of periapsis
147.8596°
True anomaly
212.26541°
Mean anomaly
212.3088°
Eccentric anomaly
212.2871°
Mean motion
3.87432 °/min
Orbital period
92.92 mins
BSTAR
0.00034416
Loading maneuver chart data...
Computing Atmospheric mass density...

Documentation

Showing up to 5 results
|